Regional Weather Roundup
Issued by NWS

Home | Current Version | Previous Version | Text Only | Print | Product List | Glossary Off
Versions: 1 2 3 4 5 6 7 8 9 10 11 12 13 14 15 16 17 18 19 20 21 22 23 24 25 26 27 28 29 30 31 32 33 34 35 36 37 38 39 40 41 42 43 44 45 46 47 48 49 50

000
ASUS45 KPSR 290110
RWRAZ

ARIZONA HOURLY REGIONAL WEATHER ROUNDUP
NATIONAL WEATHER SERVICE PHOENIX AZ
600 PM MST TUE JUL 28 2015

NOTE: FAIR INDICATES FEW OR NO CLOUDS BELOW 12,000 FEET WITH NO
SIGNIFICANT WEATHER AND/OR OBSTRUCTIONS TO VISIBILITY.

AZZ001>003-036-290200-
NORTHWEST ARIZONA

CITY           SKY/WX    TMP DP  RH WIND       PRES   REMARKS
BULLHEAD CITY  SUNNY    106  36   9 SE5       29.74S
KINGMAN        SUNNY     96  24   7 SW12      29.96F
$$

AZZ004>008-015-016-018-290200-
NORTH CENTRAL ARIZONA

CITY           SKY/WX    TMP DP  RH WIND       PRES   REMARKS
GRAND CANYON   SUNNY     84  19   9 VRB6      30.21F
WILLIAMS       SUNNY     82  27  13 CALM      30.27S
PRESCOTT       FAIR      88  36  15 NW9G16    30.08F
FLAGSTAFF      SUNNY     80  34  19 W9        30.24S
PAYSON         MOSUNNY   88  46  23 SW8       30.09S
PAGE           SUNNY     94  24   8 CALM      29.99F
$$

AZZ009>014-017-290200-
NORTHEAST ARIZONA

CITY           SKY/WX    TMP DP  RH WIND       PRES   REMARKS
WINSLOW        PTSUNNY   91  42  18 NE3       30.05S
SAINT JOHNS    CLOUDY    77  53  43 S10       30.14S
WINDOW ROCK    PTSUNNY   83  34  17 W5        30.20S
SHOW LOW       LGT RAIN  66  52  59 S17       30.23S
$$

AZZ023-290200-
GREATER PHOENIX AREA

CITY           SKY/WX    TMP DP  RH WIND       PRES   REMARKS
PHOENIX        CLOUDY   103  53  19 W7        29.74F HX 101
GLENDALE       MOSUNNY  106  55  18 S6        29.75F HX 105
LUKE AFB       PTSUNNY  104  54  18 VRB3      29.73F HX 102
DEER VALLEY    CLOUDY   101  52  19 SW7       29.76F
SCOTTSDALE     CLOUDY   102  51  18 SW6       29.79S
MESA-FALCON    PTSUNNY  100  52  19 W9        29.77S
MESA-GATEWAY   PTSUNNY  100  54  20 NW8       29.79F
CHANDLER       PTSUNNY  102  54  19 W10       29.77S HX 100
$$

AZZ027-028-290200-
SOUTHWEST MARICOPA COUNTY AND PINAL COUNTY

CITY           SKY/WX    TMP DP  RH WIND       PRES   REMARKS
CASA GRANDE    CLOUDY   100  55  22 CALM      29.79R
GILA BEND      PTSUNNY  104  57  21 W5        29.72F HX 103
$$

AZZ503-504-507>509-290200-
SOUTHEAST ARIZONA

CITY           SKY/WX    TMP DP  RH WIND       PRES   REMARKS
TUCSON         CLOUDY    77  64  64 SW9       30.02R THUNDER HAZE
DAVIS-MONTHAN  TSTM      73  66  78 SW16G24   29.98R
RYAN FIELD     PTSUNNY   84  64  51 SE20G26   29.96R
NOGALES        LGT RAIN  69  65  86 E6        30.06F
SIERRA VISTA   MOSUNNY   79  58  48 SW9       30.09S
DOUGLAS          N/A    N/A N/A N/A MISG      30.04R
SAFFORD        CLOUDY    94  51  23 W9        29.89S
$$

AZZ020-021-025-026-031-290200-
SOUTHWEST ARIZONA

CITY           SKY/WX    TMP DP  RH WIND       PRES   REMARKS
YUMA           MOSUNNY  105  63  25 S9        29.70F HX 108
$$

CAZ031-033-041-043-047-048-061-290200-
SOUTHERN CALIFORNIA

CITY           SKY/WX    TMP DP  RH WIND       PRES   REMARKS
DOWNTOWN L.A.  SUNNY     76  63  64 W6        29.83S
L.A. AIRPORT   MOSUNNY   73  64  73 W14       29.85S
SAN DIEGO      MOSUNNY   73  60  63 W8        29.87S
BURBANK        SUNNY     85  59  41 S8        29.83S
ONTARIO        SUNNY     88  60  38 W15       29.82S
RIVERSIDE      SUNNY     88  60  38 W14G20    29.82R
PALM SPRINGS   SUNNY    105  43  12 E7        29.74F HX 100
EL CENTRO NAS  MOSUNNY  106  59  21 CALM      29.69F HX 106
IMPERIAL       MOSUNNY  106  60  22 E6        29.67F HX 107
BLYTHE         SUNNY    106  54  17 VRB7      29.71F HX 104
NEEDLES        SUNNY    108  38   9 MISG      29.74F HX 102
$$

NVZ020-UTZ003-290200-
SOUTHERN NEVADA-UTAH

CITY           SKY/WX    TMP DP  RH WIND       PRES   REMARKS
LAS VEGAS      SUNNY    102  26   7 E6        29.81F
SALT LAKE CITY SUNNY     77  27  15 N10       30.19F
$$

NMZ009-TXZ055-290200-
NEW MEXICO-WEST TEXAS

CITY           SKY/WX    TMP DP  RH WIND       PRES   REMARKS
ALBUQUERQUE    LGT RAIN  84  47  27 VRB7G17   30.11R
EL PASO        MOSUNNY   96  49  20 S7        29.94R
$$


........................KEY........................
SKY/WX - SKY CONDITION/WEATHER
TMP    - TEMPERATURE IN FAHRENHEIT
DP     - DEW POINT IN FAHRENHEIT
RH     - RELATIVE HUMIDITY IN PERCENT
WIND   - DIRECTION AND SPEED IN MILES PER HOUR (MPH)
VRB    - VARIABLE WIND DIRECTION
PRES   - MEAN SEA LEVEL PRESSURE IN INCHES OF MERCURY
         F - FALLING PRESSURE   R - RISING PRESSURE
         S - STEADY PRESSURE
VSB    - VISIBILITY IN MILES
HX     - HEAT INDEX IN FAHRENHEIT
WCI    - WIND CHILL INDEX IN FAHRENHEIT
TC     - TEMPERATURE IN CELSIUS WHICH IS ALSO KNOWN AS
         TEMPERATURE IN CENTIGRADE
AFB    - AIR FORCE BASE
         LUKE AFB IS LUKE AIR FORCE BASE
         DAVIS-MONTHAN IS DAVIS-MONTHAN AIR FORCE BASE
NAS    - NAVAL AIR STATION
         EL CENTRO NAS IS EL CENTRO NAVAL AIR STATION
N/A    - NOT AVAILABLE




USA.gov is the U.S. government's official web portal to all federal, state and local government web resources and services.